Location: Geyikbay?r?
(36.8756°N, 30.4583°E)
Time: 13:18:03
(UTC+00:00)

CZ-4C R/B - Pass Details

Date: 05 August 2024
Orbit: 522 x 1469 km, 63.4° (Epoch: 11 September)

Event Time Altitude Azimuth Distance (km) Brightness Sun altitude
Rises 18:31:52 0° 318° (NW) 4,035 7.4 -16.8°
Reaches altitude 10° 18:34:40 10° 310° (NW) 3,194 6.5 -17.2°
Maximum altitude 18:41:45 37° 247° (WSW) 2,017 4.4 -18.3°
Drops below altitude 10° 18:49:41 10° 185° (S) 3,575 5.1 -19.5°
Enters shadow 18:50:47 - 182° (S) 3,898 5.3 -19.7°
